Location: York
(31.8935°S, 116.7682°E)
Time: 16:01:14
(UTC+08:00)

Hubble Space Telescope - Visible Passes

Search period start: 04 March 2024 00:00
Search period end: 14 March 2024 00:00
Orbit: 515 x 519 km, 28.5° (Epoch: 03 March)

Date Brightness Start Highest point End Pass type
(mag) Time Alt. Az. Time Alt. Az. Time Alt. Az.
04 Mar 2.0 04:04:41 32° NE 04:04:41 32° NE 04:07:20 10° E visible
04 Mar 1.1 05:40:05 10° W 05:44:02 51° N 05:47:57 10° ENE visible
05 Mar 2.8 03:48:15 22° ENE 03:48:15 22° ENE 03:49:54 10° E visible
05 Mar 1.1 05:23:09 13° WNW 05:26:33 50° N 05:30:28 10° ENE visible
06 Mar 3.5 03:31:50 14° ENE 03:31:50 14° ENE 03:32:26 10° E visible
06 Mar 1.1 05:06:44 22° WNW 05:09:04 48° N 05:12:57 10° ENE visible
07 Mar 1.1 04:50:21 34° NW 04:51:33 46° N 04:55:26 10° ENE visible
08 Mar 1.2 04:34:01 43° N 04:34:02 43° N 04:37:53 10° ENE visible
09 Mar 2.0 04:17:45 31° NNE 04:17:45 31° NNE 04:20:18 10° ENE visible
10 Mar 3.0 04:01:32 17° NE 04:01:32 17° NE 04:02:42 10° NE visible
10 Mar 2.7 05:36:50 10° WNW 05:39:13 15° NNW 05:41:35 10° NNE visible
11 Mar 2.7 05:20:20 12° NW 05:21:37 13° NNW 05:23:31 10° N visible
12 Mar 3.0 05:04:17 11° NNW 05:04:17 11° NNW 05:05:11 10° N visible
